Weather History for KAJG - October, 2013

Change the Weather History Date:

Tuesday, October 22, 2013

  Actual Average (KLWV) Record (KLWV)
Temperature  
Mean Temperature 46 °F 56 °F  
Max Temperature 59 °F 67 °F 80 °F (2012)
Min Temperature 32 °F 44 °F 28 °F (1997)
Degree Days  
Heating Degree Days 20 10  
Month to date heating degree days 156  
Since 1 July heating degree days 195  
Cooling Degree Days 0 0  
Month to date cooling degree days 31  
Year to date cooling degree days 1385  
Moisture  
Dew Point 35 °F    
Average Humidity 71    
Maximum Humidity 100    
Minimum Humidity 36    
Precipitation  
Precipitation 0.00 in 0.13 in 0.77 in (2007)
Month to date precipitation 3.00  
Year to date precipitation 35.54  
Sea Level Pressure  
Sea Level Pressure 29.97 in    
Wind  
Wind Speed 4 mph (SSW)    
Max Wind Speed 20 mph    
Max Gust Speed 26 mph    
Visibility 10 miles    
Events Rain    
T = Trace of Precipitation, MM = Missing Value Source: NWS Daily Summary

Daily Weather History Graph

Daily Weather History Graph

Search for Another Location

Airport or City:

Trip Planner

Search our weather history database for the weather conditions in past years. The results will help you decide how hot, cold, wet, or windy it might be!

Date:

Astronomy

Oct. 22, 2013 Rise Set
Actual Time 7:07 AM CDT 6:02 PM CDT
Civil Twilight 6:40 AM CDT 6:29 PM CDT
Nautical Twilight 6:09 AM CDT 7:00 PM CDT
Astronomical Twilight 5:38 AM CDT 7:31 PM CDT
Moon 8:44 PM CDT (10/22) 10:33 AM CDT (10/22)
Length of Visible Light 11h 49m
Length of Day
10h 55m
Waning Gibbous, 86% of the Moon is Illuminated
Oct 22
Waning Gibbous
Oct 26
Last Quarter
Nov 3
New
Nov 9
First Quarter
Nov 17
Full

Hourly Weather History & Observations

Time (CDT) Temp. Windchill Dew Point Humidity Pressure Visibility Wind Dir Wind Speed Gust Speed Precip Events Conditions
12:15 AM 41.0 °F - 35.6 °F 81% 30.06 in 10.0 mi Calm Calm - N/A   Clear
12:35 AM 41.0 °F 39.0 °F 35.6 °F 81% 30.06 in 10.0 mi NNW 3.5 mph - N/A   Clear
12:55 AM 41.0 °F - 35.6 °F 81% 30.06 in 10.0 mi Calm Calm - N/A   Clear
1:15 AM 37.4 °F 34.9 °F 33.8 °F 87% 30.06 in 10.0 mi WNW 3.5 mph - N/A   Clear
1:35 AM 37.4 °F 34.9 °F 35.6 °F 93% 30.07 in 10.0 mi WNW 3.5 mph - N/A   Clear
1:55 AM 35.6 °F - 33.8 °F 93% 30.07 in 10.0 mi Calm Calm - N/A   Clear
2:15 AM 35.6 °F - 33.8 °F 93% 30.08 in 10.0 mi Calm Calm - N/A   Clear
2:35 AM 35.6 °F - 33.8 °F 93% 30.07 in 10.0 mi Calm Calm - N/A   Clear
2:55 AM 35.6 °F - 33.8 °F 93% 30.07 in 10.0 mi Calm Calm - N/A   Clear
3:15 AM 35.6 °F 32.8 °F 33.8 °F 93% 30.07 in 10.0 mi WSW 3.5 mph - N/A   Clear
3:35 AM 33.8 °F - 33.8 °F 100% 30.07 in 10.0 mi Calm Calm - N/A   Clear
3:55 AM 35.6 °F - 33.8 °F 93% 30.06 in 10.0 mi Calm Calm - N/A   Clear
4:15 AM 33.8 °F - 33.8 °F 100% 30.06 in 10.0 mi Calm Calm - N/A   Clear
4:35 AM 33.8 °F - 33.8 °F 100% 30.07 in 10.0 mi Calm Calm - N/A   Clear
4:55 AM 33.8 °F - 32.0 °F 93% 30.06 in 7.0 mi Calm Calm - N/A   Clear
5:15 AM 33.8 °F - 33.8 °F 100% 30.06 in 5.0 mi Calm Calm - N/A   Clear
5:35 AM 32.0 °F - 32.0 °F 100% 30.06 in 10.0 mi Calm Calm - N/A   Clear
5:55 AM 33.8 °F - 32.0 °F 93% 30.06 in 10.0 mi Calm Calm - N/A   Clear
6:15 AM 33.8 °F - 32.0 °F 93% 30.06 in 10.0 mi Calm Calm - N/A   Clear
6:35 AM 32.0 °F - 32.0 °F 100% 30.06 in 10.0 mi Calm Calm - N/A   Clear
6:55 AM 32.0 °F - 32.0 °F 100% 30.06 in 10.0 mi Calm Calm - N/A   Clear
7:15 AM 32.0 °F - 32.0 °F 100% 30.06 in 10.0 mi Calm Calm - N/A   Clear
7:35 AM 32.0 °F - 32.0 °F 100% 30.06 in 10.0 mi Calm Calm - N/A   Clear
7:55 AM 33.8 °F - 33.8 °F 100% 30.06 in 10.0 mi Calm Calm - N/A   Clear
8:15 AM 35.6 °F - 33.8 °F 93% 30.07 in 10.0 mi Calm Calm - N/A   Clear
8:35 AM 37.4 °F - 35.6 °F 93% 30.07 in 10.0 mi Calm Calm - N/A   Clear
8:55 AM 41.0 °F - 41.0 °F 100% 30.07 in 10.0 mi Calm Calm - N/A   Clear
9:15 AM 46.4 °F 44.3 °F 37.4 °F 71% 30.06 in 10.0 mi South 4.6 mph - N/A   Clear
9:35 AM 46.4 °F 43.5 °F 35.6 °F 66% 30.06 in 10.0 mi South 5.8 mph - N/A   Clear
9:55 AM 50.0 °F - 35.6 °F 58% 30.04 in 10.0 mi South 6.9 mph - N/A   Clear
10:15 AM 51.8 °F - 33.8 °F 50% 30.04 in 10.0 mi South 4.6 mph - N/A   Clear
10:35 AM 53.6 °F - 32.0 °F 44% 30.03 in 10.0 mi SSW 6.9 mph - N/A   Scattered Clouds
10:55 AM 55.4 °F - 32.0 °F 41% 30.03 in 10.0 mi South 3.5 mph - N/A   Clear
11:15 AM 55.4 °F - 30.2 °F 38% 30.02 in 10.0 mi SSE 5.8 mph - N/A   Clear
11:35 AM 55.4 °F - 32.0 °F 41% 30.02 in 10.0 mi SW 6.9 mph - N/A   Clear
11:55 AM 53.6 °F - 30.2 °F 41% 30.01 in 10.0 mi SSW 9.2 mph - N/A   Clear
12:15 PM 55.4 °F - 32.0 °F 41% 30.00 in 10.0 mi South 9.2 mph - N/A   Clear
12:35 PM 53.6 °F - 32.0 °F 44% 29.99 in 10.0 mi South 6.9 mph - N/A   Scattered Clouds
12:55 PM 53.6 °F - 32.0 °F 44% 29.98 in 10.0 mi SSW 10.4 mph - N/A   Overcast
1:15 PM 55.4 °F - 32.0 °F 41% 29.96 in 10.0 mi SSW 8.1 mph - N/A   Mostly Cloudy
1:35 PM 55.4 °F - 32.0 °F 41% 29.95 in 10.0 mi SSW 10.4 mph - N/A   Scattered Clouds
1:55 PM 55.4 °F - 32.0 °F 41% 29.93 in 10.0 mi South 11.5 mph - N/A   Scattered Clouds
2:15 PM 55.4 °F - 32.0 °F 41% 29.92 in 10.0 mi South 9.2 mph - N/A   Scattered Clouds
2:35 PM 59.0 °F - 32.0 °F 36% 29.92 in 10.0 mi SW 10.4 mph - N/A   Mostly Cloudy
2:55 PM 57.2 °F - 32.0 °F 38% 29.90 in 10.0 mi South 13.8 mph 17.3 mph N/A   Mostly Cloudy
3:15 PM 55.4 °F - 32.0 °F 41% 29.89 in 10.0 mi South 9.2 mph - N/A   Overcast
3:35 PM 55.4 °F - 32.0 °F 41% 29.88 in 10.0 mi SSW 12.7 mph - N/A   Overcast
3:55 PM 55.4 °F - 32.0 °F 41% 29.87 in 10.0 mi South 11.5 mph 16.1 mph N/A   Overcast
4:15 PM 55.4 °F - 32.0 °F 41% 29.86 in 10.0 mi SSE 9.2 mph - N/A   Overcast
4:35 PM 55.4 °F - 32.0 °F 41% 29.85 in 10.0 mi South 10.4 mph - N/A   Overcast
4:55 PM 55.4 °F - 33.8 °F 44% 29.85 in 10.0 mi South 6.9 mph - N/A   Overcast
5:15 PM 55.4 °F - 33.8 °F 44% 29.84 in 10.0 mi South 11.5 mph - N/A   Mostly Cloudy
5:35 PM 53.6 °F - 35.6 °F 51% 29.84 in 10.0 mi South 6.9 mph - N/A Rain Light Rain
5:55 PM 53.6 °F - 37.4 °F 54% 29.84 in 10.0 mi SSW 6.9 mph - N/A   Overcast
6:15 PM 51.8 °F - 35.6 °F 54% 29.84 in 10.0 mi South 8.1 mph - N/A   Scattered Clouds
6:35 PM 51.8 °F - 35.6 °F 54% 29.84 in 10.0 mi South 5.8 mph - N/A   Clear
6:55 PM 51.8 °F - 35.6 °F 54% 29.84 in 10.0 mi South 5.8 mph - N/A   Scattered Clouds
7:15 PM 50.0 °F - 37.4 °F 62% 29.83 in 10.0 mi South 5.8 mph - N/A   Mostly Cloudy
7:35 PM 50.0 °F - 37.4 °F 62% 29.83 in 10.0 mi South 5.8 mph - N/A   Overcast
7:55 PM 51.8 °F - 37.4 °F 58% 29.83 in 10.0 mi SSW 6.9 mph - N/A   Overcast
8:15 PM 50.0 °F - 41.0 °F 71% 29.84 in 10.0 mi SW 6.9 mph - N/A Rain Light Rain
9:15 PM 50.0 °F - 44.6 °F 82% 29.83 in 10.0 mi WSW 8.1 mph - N/A   Overcast
9:35 PM 48.2 °F - 42.8 °F 82% 29.83 in 10.0 mi West 5.8 mph - N/A   Scattered Clouds
10:15 PM 46.4 °F 41.9 °F 44.6 °F 93% 29.84 in 10.0 mi West 9.2 mph - N/A   Scattered Clouds
10:35 PM 48.2 °F - 44.6 °F 87% 29.84 in 10.0 mi West 9.2 mph 16.1 mph N/A   Mostly Cloudy
10:55 PM 48.2 °F - 44.6 °F 87% 29.84 in 10.0 mi West 13.8 mph 18.4 mph N/A   Overcast
11:15 PM 46.4 °F 40.1 °F 42.8 °F 87% 29.83 in 10.0 mi West 15.0 mph - N/A   Overcast
11:35 PM 46.4 °F 39.0 °F 42.8 °F 87% 29.84 in 10.0 mi WNW 19.6 mph 26.5 mph N/A   Overcast
11:55 PM 46.4 °F 39.5 °F 42.8 °F 87% 29.84 in 10.0 mi WNW 17.3 mph 26.5 mph N/A   Overcast